| time (UTC) | temp C | wind direction | speed KPH | gust KPH | rain 1hr cm | rain 24hr cm | rain mn cm | humidity % | barometer mb |
| 20260510193104 | 20 | 210 | 1.6 | 4.8 | 0.00 | 1.09 | 0.00 | 72 | 1010.1 |
| 20260510192556 | 20 | 197 | 0.0 | 4.8 | 0.00 | 1.09 | 0.00 | 72 | 1010.2 |
| 20260510192051 | 20 | 207 | 0.0 | 8.0 | 0.00 | 1.09 | 0.00 | 72 | 1010.3 |
| 20260510191600 | 20 | 201 | 1.6 | 8.0 | 0.00 | 1.09 | 0.00 | 73 | 1010.4 |
| 20260510191049 | 20 | 216 | 1.6 | 8.0 | 0.00 | 1.09 | 0.00 | 73 | 1010.5 |
| 20260510190549 | 20 | 261 | 1.6 | 8.0 | 0.00 | 1.09 | 0.00 | 73 | 1010.5 |
| 20260510190048 | 20 | 222 | 3.2 | 8.0 | 0.00 | 1.09 | 0.00 | 73 | 1010.5 |
| 20260510185548 | 20 | 236 | 3.2 | 8.0 | 0.00 | 1.09 | 0.00 | 73 | 1010.5 |
| 20260510185048 | 20 | 197 | 0.0 | 8.0 | 0.00 | 1.09 | 0.00 | 73 | 1010.5 |
| 20260510184546 | 20 | 190 | 1.6 | 8.0 | 0.00 | 1.09 | 0.00 | 74 | 1010.4 |
| 20260510184046 | 20 | 193 | 3.2 | 6.4 | 0.00 | 1.09 | 0.00 | 74 | 1010.5 |
| 20260510183547 | 20 | 188 | 1.6 | 6.4 | 0.00 | 1.09 | 0.00 | 73 | 1010.5 |
| 20260510183053 | 20 | 209 | 1.6 | 4.8 | 0.00 | 1.09 | 0.00 | 75 | 1010.4 |
| 20260510182543 | 20 | 229 | 0.0 | 4.8 | 0.00 | 1.09 | 0.00 | 75 | 1010.5 |
| 20260510182043 | 20 | 204 | 1.6 | 4.8 | 0.00 | 1.09 | 0.00 | 75 | 1010.6 |
| 20260510181544 | 19 | 190 | 0.0 | 9.7 | 0.00 | 1.09 | 0.00 | 76 | 1010.6 |
| 20260510181043 | 20 | 161 | 0.0 | 9.7 | 0.00 | 1.09 | 0.00 | 75 | 1010.6 |
| 20260510180541 | 19 | 209 | 0.0 | 8.0 | 0.00 | 1.09 | 0.00 | 76 | 1010.7 |
| 20260510180042 | 19 | 190 | 0.0 | 8.0 | 0.00 | 1.09 | 0.00 | 77 | 1010.9 |
| 20260510175541 | 18 | 212 | 1.6 | 8.0 | 0.00 | 1.09 | 0.00 | 76 | 1010.9 |
| 20260510175038 | 19 | 212 | 1.6 | 8.0 | 0.00 | 1.09 | 0.00 | 76 | 1011.1 |
| 20260510174540 | 19 | 230 | 1.6 | 8.0 | 0.00 | 1.09 | 0.00 | 76 | 1011.1 |
| 20260510174035 | 18 | 198 | 1.6 | 8.0 | 0.00 | 1.09 | 0.00 | 76 | 1011.2 |
| 20260510173535 | 19 | 202 | 0.0 | 6.4 | 0.00 | 1.09 | 0.00 | 76 | 1011.3 |
| 20260510173034 | 19 | 228 | 1.6 | 6.4 | 0.00 | 1.09 | 0.00 | 77 | 1011.3 |
| 20260510172534 | 18 | 193 | 0.0 | 6.4 | 0.00 | 1.09 | 0.00 | 78 | 1011.3 |
| 20260510172033 | 18 | 209 | 1.6 | 8.0 | 0.00 | 1.09 | 0.00 | 78 | 1011.3 |
| 20260510171534 | 18 | 214 | 1.6 | 8.0 | 0.00 | 1.09 | 0.00 | 78 | 1011.3 |
| 20260510171031 | 18 | 205 | 1.6 | 8.0 | 0.00 | 1.09 | 0.00 | 78 | 1011.2 |
| 20260510170530 | 18 | 212 | 1.6 | 8.0 | 0.00 | 1.09 | 0.00 | 79 | 1011.2 |
| 20260510170029 | 18 | 247 | 3.2 | 8.0 | 0.00 | 1.09 | 0.00 | 78 | 1011.3 |
| 20260510165528 | 18 | 201 | 0.0 | 3.2 | 0.00 | 1.09 | 0.00 | 80 | 1011.3 |
| 20260510165026 | 18 | 193 | 0.0 | 4.8 | 0.00 | 1.09 | 0.00 | 82 | 1011.2 |
| 20260510164526 | 18 | 204 | 0.0 | 4.8 | 0.00 | 1.09 | 0.00 | 81 | 1011.2 |
| 20260510164030 | 17 | 185 | 0.0 | 6.4 | 0.00 | 1.09 | 0.00 | 83 | 1011.3 |
| 20260510163526 | 17 | 195 | 1.6 | 8.0 | 0.00 | 1.09 | 0.00 | 81 | 1011.4 |
| 20260510163026 | 17 | 189 | 0.0 | 8.0 | 0.00 | 1.09 | 0.00 | 81 | 1011.3 |
| 20260510162526 | 17 | 180 | 0.0 | 4.8 | 0.00 | 1.09 | 0.00 | 82 | 1011.4 |
| 20260510162025 | 17 | 164 | 0.0 | 4.8 | 0.00 | 1.09 | 0.00 | 82 | 1011.4 |
| 20260510161525 | 17 | 192 | 0.0 | 8.0 | 0.00 | 1.09 | 0.00 | 81 | 1011.5 |
| 20260510161025 | 17 | 192 | 1.6 | 8.0 | 0.00 | 1.09 | 0.00 | 80 | 1011.6 |
| 20260510160525 | 18 | 188 | 1.6 | 6.4 | 0.00 | 1.09 | 0.00 | 80 | 1011.6 |
| 20260510160028 | 18 | 225 | 0.0 | 1.6 | 0.00 | 1.09 | 0.00 | 80 | 1011.5 |
| 20260510155524 | 18 | 207 | 0.0 | 1.6 | 0.00 | 1.09 | 0.00 | 80 | 1011.5 |
| 20260510155024 | 18 | 220 | 0.0 | 0.0 | 0.00 | 1.09 | 0.00 | 81 | 1011.4 |
| 20260510154524 | 18 | 204 | 0.0 | 0.0 | 0.00 | 1.09 | 0.00 | 81 | 1011.4 |
| 20260510154023 | 18 | 232 | 0.0 | 0.0 | 0.00 | 1.09 | 0.00 | 82 | 1011.4 |
| 20260510153521 | 17 | 194 | 0.0 | 1.6 | 0.00 | 1.09 | 0.00 | 82 | 1011.3 |
| 20260510153033 | 17 | 219 | 0.0 | 1.6 | 0.00 | 1.09 | 0.00 | 82 | 1011.3 |
| 20260510152520 | 17 | 221 | 0.0 | 1.6 | 0.00 | 1.09 | 0.00 | 82 | 1011.5 |
| 20260510152019 | 17 | 206 | 0.0 | 1.6 | 0.00 | 1.09 | 0.00 | 84 | 1011.5 |
| 20260510151518 | 17 | 203 | 0.0 | 1.6 | 0.00 | 1.09 | 0.00 | 83 | 1011.6 |
| 20260510151019 | 17 | 178 | 0.0 | 3.2 | 0.00 | 1.09 | 0.00 | 84 | 1011.7 |
| 20260510150517 | 17 | 198 | 0.0 | 3.2 | 0.00 | 1.09 | 0.00 | 83 | 1011.7 |
| 20260510150019 | 17 | 193 | 0.0 | 1.6 | 0.00 | 1.09 | 0.00 | 83 | 1011.8 |
| 20260510145515 | 17 | 192 | 0.0 | 1.6 | 0.00 | 1.09 | 0.00 | 85 | 1011.8 |
| 20260510145014 | 17 | 200 | 0.0 | 3.2 | 0.00 | 1.09 | 0.00 | 84 | 1011.8 |
| 20260510144526 | 16 | 195 | 0.0 | 3.2 | 0.00 | 1.09 | 0.00 | 85 | 1011.9 |
| 20260510144014 | 16 | 188 | 0.0 | 4.8 | 0.00 | 1.09 | 0.00 | 86 | 1011.8 |
| 20260510143516 | 16 | 195 | 0.0 | 4.8 | 0.00 | 1.09 | 0.00 | 88 | 1011.8 |
| 20260510143010 | 16 | 193 | 0.0 | 0.0 | 0.00 | 1.09 | 0.00 | 88 | 1011.9 |
| 20260510142509 | 15 | 204 | 0.0 | 0.0 | 0.00 | 1.09 | 0.00 | 89 | 1011.9 |
| 20260510142012 | 15 | 203 | 0.0 | 0.0 | 0.00 | 1.09 | 0.00 | 89 | 1011.9 |
| 20260510141512 | 15 | 203 | 0.0 | 0.0 | 0.00 | 1.09 | 0.00 | 90 | 1011.8 |
| 20260510141006 | 15 | 203 | 0.0 | 0.0 | 0.00 | 1.09 | 0.00 | 90 | 1011.8 |
| 20260510140504 | 15 | 172 | 0.0 | 0.0 | 0.00 | 1.09 | 0.00 | 91 | 1011.9 |
| 20260510140004 | 14 | 188 | 0.0 | 0.0 | 0.00 | 1.09 | 0.00 | 91 | 1011.9 |
| 20260510135504 | 14 | 188 | 0.0 | 0.0 | 0.00 | 1.09 | 0.00 | 92 | 1011.9 |
| 20260510135001 | 14 | 202 | 0.0 | 0.0 | 0.00 | 1.09 | 0.00 | 92 | 1012.1 |
| 20260510134607 | 13 | 199 | 0.0 | 0.0 | 0.00 | 1.09 | 0.00 | 92 | 1012.1 |
| 20260510134102 | 13 | 211 | 0.0 | 0.0 | 0.00 | 1.09 | 0.00 | 92 | 1012.0 |
| 20260510133559 | 13 | 204 | 0.0 | 0.0 | 0.00 | 1.09 | 0.00 | 92 | 1011.9 |
| 20260510133116 | 13 | 208 | 0.0 | 0.0 | 0.00 | 1.09 | 0.00 | 92 | 1012.0 |
| 20260510132558 | 13 | 205 | 0.0 | 0.0 | 0.00 | 1.09 | 0.00 | 92 | 1011.9 |
| 20260510132101 | 13 | 207 | 0.0 | 0.0 | 0.00 | 1.09 | 0.00 | 92 | 1011.9 |
| 20260510131604 | 13 | 186 | 0.0 | 4.8 | 0.00 | 1.09 | 0.00 | 92 | 1011.8 |
| 20260510131056 | 13 | 176 | 0.0 | 8.0 | 0.00 | 1.09 | 0.00 | 92 | 1011.7 |
| 20260510130556 | 13 | 176 | 0.0 | 8.0 | 0.00 | 1.09 | 0.00 | 91 | 1011.6 |
| 20260510130055 | 13 | 189 | 0.0 | 3.2 | 0.00 | 1.09 | 0.00 | 91 | 1011.2 |
| 20260510125555 | 13 | 191 | 0.0 | 6.4 | 0.00 | 1.09 | 0.00 | 92 | 1011.1 |
| 20260510125054 | 13 | 241 | 0.0 | 6.4 | 0.00 | 1.09 | 0.00 | 91 | 1011.1 |
| 20260510124558 | 14 | 164 | 0.0 | 1.6 | 0.00 | 1.09 | 0.00 | 92 | 1010.9 |
| 20260510124053 | 14 | 190 | 0.0 | 0.0 | 0.00 | 1.09 | 0.00 | 93 | 1010.9 |
| 20260510123552 | 13 | 199 | 0.0 | 0.0 | 0.00 | 1.09 | 0.00 | 93 | 1010.8 |
| 20260510123100 | 13 | 218 | 0.0 | 0.0 | 0.00 | 1.09 | 0.00 | 94 | 1010.6 |
| 20260510122550 | 13 | 211 | 0.0 | 0.0 | 0.00 | 1.09 | 0.00 | 94 | 1010.7 |
| 20260510122049 | 13 | 217 | 0.0 | 0.0 | 0.00 | 1.09 | 0.00 | 95 | 1010.8 |
| 20260510121549 | 13 | 198 | 0.0 | 0.0 | 0.00 | 1.09 | 0.00 | 94 | 1011.0 |
| 20260510121048 | 13 | 215 | 0.0 | 0.0 | 0.00 | 1.09 | 0.00 | 95 | 1011.2 |
| 20260510120547 | 13 | 187 | 0.0 | 0.0 | 0.00 | 1.09 | 0.00 | 95 | 1011.3 |
| 20260510120047 | 12 | 189 | 0.0 | 0.0 | 0.00 | 1.09 | 0.00 | 95 | 1011.3 |
| 20260510115550 | 12 | 195 | 0.0 | 0.0 | 0.00 | 1.14 | 0.00 | 95 | 1011.3 |
| 20260510115046 | 12 | 196 | 0.0 | 0.0 | 0.00 | 1.14 | 0.00 | 95 | 1011.4 |
| 20260510114546 | 12 | 196 | 0.0 | 0.0 | 0.00 | 1.14 | 0.00 | 95 | 1011.4 |
| 20260510114045 | 12 | 196 | 0.0 | 0.0 | 0.00 | 1.14 | 0.00 | 95 | 1011.3 |
| 20260510113545 | 12 | 197 | 0.0 | 0.0 | 0.00 | 1.14 | 0.00 | 95 | 1011.4 |
| 20260510113046 | 12 | 190 | 0.0 | 0.0 | 0.00 | 1.14 | 0.00 | 95 | 1011.3 |
| 20260510112545 | 12 | 194 | 0.0 | 0.0 | 0.00 | 1.14 | 0.00 | 95 | 1011.3 |
| 20260510112045 | 12 | 194 | 0.0 | 0.0 | 0.00 | 1.14 | 0.00 | 95 | 1011.3 |
| 20260510111545 | 12 | 192 | 0.0 | 1.6 | 0.00 | 1.14 | 0.00 | 95 | 1011.2 |
| 20260510111044 | 12 | 192 | 0.0 | 1.6 | 0.00 | 1.14 | 0.00 | 95 | 1011.2 |
| 20260510110543 | 12 | 196 | 0.0 | 0.0 | 0.00 | 1.14 | 0.00 | 95 | 1011.2 |
| 20260510110047 | 12 | 197 | 0.0 | 0.0 | 0.00 | 1.14 | 0.00 | 96 | 1011.2 |
| 20260510105543 | 12 | 197 | 0.0 | 0.0 | 0.00 | 1.17 | 0.00 | 96 | 1011.2 |
| 20260510105042 | 12 | 197 | 0.0 | 0.0 | 0.00 | 1.17 | 0.00 | 95 | 1011.2 |
| 20260510104542 | 12 | 197 | 0.0 | 0.0 | 0.00 | 1.17 | 0.00 | 96 | 1011.3 |
| 20260510104041 | 12 | 197 | 0.0 | 0.0 | 0.00 | 1.17 | 0.00 | 96 | 1011.5 |
| 20260510103541 | 12 | 197 | 0.0 | 0.0 | 0.00 | 1.17 | 0.00 | 96 | 1011.4 |
| 20260510103043 | 12 | 197 | 0.0 | 0.0 | 0.00 | 1.17 | 0.00 | 96 | 1011.2 |
| 20260510102541 | 12 | 197 | 0.0 | 0.0 | 0.00 | 1.17 | 0.00 | 95 | 1011.3 |
| 20260510102040 | 12 | 197 | 0.0 | 0.0 | 0.00 | 1.17 | 0.00 | 95 | 1011.2 |
| 20260510101540 | 12 | 197 | 0.0 | 0.0 | 0.00 | 1.17 | 0.00 | 95 | 1011.1 |
| 20260510101039 | 12 | 197 | 0.0 | 0.0 | 0.00 | 1.17 | 0.00 | 95 | 1011.0 |
| 20260510100541 | 12 | 197 | 0.0 | 0.0 | 0.00 | 1.17 | 0.00 | 95 | 1011.1 |
| 20260510100038 | 12 | 197 | 0.0 | 0.0 | 0.00 | 1.17 | 0.00 | 95 | 1011.2 |
| 20260510095538 | 12 | 197 | 0.0 | 0.0 | 0.00 | 1.17 | 0.00 | 95 | 1011.1 |
| 20260510095038 | 12 | 197 | 0.0 | 0.0 | 0.00 | 1.17 | 0.00 | 95 | 1011.1 |
| 20260510094538 | 12 | 197 | 0.0 | 0.0 | 0.00 | 1.17 | 0.00 | 95 | 1011.1 |
| 20260510094037 | 12 | 197 | 0.0 | 0.0 | 0.00 | 1.17 | 0.00 | 95 | 1011.0 |
| 20260510093536 | 12 | 197 | 0.0 | 0.0 | 0.00 | 1.17 | 0.00 | 95 | 1010.9 |
| 20260510093036 | 12 | 197 | 0.0 | 0.0 | 0.00 | 1.17 | 0.00 | 95 | 1010.8 |
| 20260510092538 | 12 | 197 | 0.0 | 0.0 | 0.00 | 1.17 | 0.00 | 95 | 1010.7 |
| 20260510092035 | 12 | 197 | 0.0 | 0.0 | 0.00 | 1.17 | 0.00 | 95 | 1010.5 |
| 20260510091534 | 12 | 197 | 0.0 | 0.0 | 0.00 | 1.17 | 0.00 | 95 | 1010.6 |
| 20260510091034 | 12 | 197 | 0.0 | 0.0 | 0.00 | 1.17 | 0.00 | 95 | 1010.5 |
| 20260510090534 | 12 | 197 | 0.0 | 0.0 | 0.00 | 1.17 | 0.00 | 95 | 1010.5 |
| 20260510090033 | 12 | 197 | 0.0 | 0.0 | 0.00 | 1.17 | 0.00 | 95 | 1010.5 |
| 20260510085535 | 12 | 197 | 0.0 | 0.0 | 0.00 | 1.17 | 0.00 | 95 | 1010.4 |
| 20260510085033 | 12 | 197 | 0.0 | 0.0 | 0.00 | 1.17 | 0.00 | 95 | 1010.4 |
| 20260510084534 | 12 | 197 | 0.0 | 0.0 | 0.00 | 1.17 | 0.00 | 95 | 1010.4 |
| 20260510084033 | 12 | 197 | 0.0 | 0.0 | 0.00 | 1.17 | 0.00 | 95 | 1010.5 |
| 20260510083535 | 12 | 197 | 0.0 | 0.0 | 0.00 | 1.17 | 0.00 | 95 | 1010.6 |
| 20260510083032 | 12 | 197 | 0.0 | 0.0 | 0.00 | 1.17 | 0.00 | 95 | 1010.6 |
| 20260510082531 | 12 | 197 | 0.0 | 0.0 | 0.00 | 1.17 | 0.00 | 95 | 1010.6 |
| 20260510082031 | 12 | 197 | 0.0 | 0.0 | 0.00 | 1.17 | 0.00 | 95 | 1010.5 |
| 20260510081538 | 12 | 197 | 0.0 | 0.0 | 0.00 | 1.17 | 0.00 | 95 | 1010.5 |
| 20260510081032 | 11 | 197 | 0.0 | 0.0 | 0.00 | 1.17 | 0.00 | 95 | 1010.5 |
| 20260510080532 | 11 | 197 | 0.0 | 0.0 | 0.00 | 1.17 | 0.00 | 95 | 1010.5 |
| 20260510080031 | 11 | 197 | 0.0 | 0.0 | 0.00 | 1.17 | 0.00 | 95 | 1010.5 |
| 20260510075530 | 11 | 197 | 0.0 | 0.0 | 0.00 | 1.17 | 0.00 | 95 | 1010.5 |
| 20260510075030 | 11 | 197 | 0.0 | 0.0 | 0.00 | 1.17 | 0.00 | 95 | 1010.6 |
| 20260510074530 | 11 | 197 | 0.0 | 0.0 | 0.00 | 1.17 | 0.00 | 95 | 1010.6 |
| 20260510074032 | 11 | 197 | 0.0 | 0.0 | 0.00 | 1.17 | 0.00 | 95 | 1010.6 |
| 20260510073528 | 11 | 197 | 0.0 | 0.0 | 0.00 | 1.17 | 0.00 | 95 | 1010.4 |
| 20260510073033 | 11 | 197 | 0.0 | 0.0 | 0.00 | 1.17 | 0.00 | 95 | 1010.3 |
| 20260510072527 | 11 | 197 | 0.0 | 0.0 | 0.00 | 1.17 | 0.00 | 95 | 1010.2 |
| 20260510072027 | 11 | 197 | 0.0 | 0.0 | 0.00 | 1.17 | 0.00 | 95 | 1010.2 |
| 20260510071527 | 11 | 197 | 0.0 | 0.0 | 0.00 | 1.17 | 0.00 | 94 | 1010.1 |
| 20260510071026 | 11 | 197 | 0.0 | 0.0 | 0.00 | 1.17 | 0.00 | 94 | 1010.1 |
| 20260510070526 | 11 | 197 | 0.0 | 0.0 | 0.00 | 1.17 | 0.00 | 94 | 1010.0 |
| 20260510070026 | 11 | 197 | 0.0 | 0.0 | 0.00 | 1.17 | 0.00 | 94 | 1010.0 |
| 20260510065526 | 11 | 197 | 0.0 | 0.0 | 0.00 | 1.17 | 0.00 | 94 | 1010.0 |
| 20260510065027 | 11 | 197 | 0.0 | 0.0 | 0.00 | 1.17 | 0.00 | 94 | 1010.0 |
| 20260510064529 | 11 | 197 | 0.0 | 0.0 | 0.00 | 1.17 | 0.00 | 94 | 1010.0 |
| 20260510064025 | 11 | 203 | 0.0 | 0.0 | 0.00 | 1.17 | 0.00 | 94 | 1010.0 |
| 20260510063525 | 11 | 202 | 0.0 | 0.0 | 0.00 | 1.17 | 0.00 | 94 | 1010.0 |
| 20260510063034 | 11 | 202 | 0.0 | 0.0 | 0.00 | 1.17 | 0.00 | 94 | 1010.1 |
| 20260510062525 | 11 | 202 | 0.0 | 0.0 | 0.00 | 1.17 | 0.00 | 94 | 1010.1 |
| 20260510062025 | 11 | 202 | 0.0 | 0.0 | 0.00 | 1.17 | 0.00 | 94 | 1010.1 |
| 20260510061525 | 11 | 202 | 0.0 | 0.0 | 0.00 | 1.17 | 0.00 | 94 | 1010.1 |
| 20260510061025 | 11 | 203 | 0.0 | 1.6 | 0.00 | 1.17 | 0.00 | 94 | 1010.1 |
| 20260510060525 | 11 | 204 | 0.0 | 1.6 | 0.00 | 1.17 | 0.00 | 94 | 1010.1 |
| 20260510060025 | 11 | 218 | 0.0 | 3.2 | 0.00 | 1.17 | 0.00 | 94 | 1010.2 |
| 20260510055523 | 11 | 223 | 0.0 | 3.2 | 0.00 | 1.17 | 0.00 | 94 | 1010.2 |
| 20260510055023 | 11 | 192 | 0.0 | 1.6 | 0.00 | 1.17 | 0.00 | 94 | 1010.2 |
| 20260510054624 | 11 | 191 | 0.0 | 1.6 | 0.00 | 1.17 | 0.00 | 94 | 1010.2 |
| 20260510054026 | 11 | 168 | 0.0 | 1.6 | 0.00 | 1.17 | 0.00 | 94 | 1010.1 |
| 20260510053523 | 11 | 204 | 0.0 | 1.6 | 0.00 | 1.17 | 0.00 | 94 | 1010.0 |
| 20260510053023 | 11 | 190 | 0.0 | 1.6 | 0.00 | 1.17 | 0.00 | 93 | 1010.0 |
| 20260510052522 | 11 | 190 | 0.0 | 1.6 | 0.00 | 1.17 | 0.00 | 93 | 1010.2 |
| 20260510052022 | 11 | 202 | 0.0 | 1.6 | 0.00 | 1.17 | 0.00 | 93 | 1010.1 |
| 20260510051527 | 11 | 201 | 0.0 | 0.0 | 0.00 | 1.17 | 0.00 | 93 | 1010.0 |
| 20260510051022 | 11 | 201 | 0.0 | 0.0 | 0.00 | 1.17 | 0.00 | 93 | 1010.0 |
| 20260510050523 | 11 | 201 | 0.0 | 0.0 | 0.00 | 1.17 | 0.00 | 93 | 1010.0 |
| 20260510050021 | 11 | 201 | 0.0 | 3.2 | 0.00 | 1.17 | 0.00 | 93 | 1010.0 |
| 20260510045521 | 11 | 202 | 0.0 | 3.2 | 0.00 | 1.17 | 0.00 | 93 | 1010.0 |
| 20260510045021 | 11 | 165 | 0.0 | 0.0 | 0.00 | 1.17 | 0.00 | 93 | 1010.1 |
| 20260510044520 | 11 | 165 | 0.0 | 1.6 | 0.00 | 1.17 | 0.00 | 93 | 1010.1 |
| 20260510044020 | 11 | 165 | 0.0 | 1.6 | 0.00 | 1.17 | 0.00 | 93 | 1010.1 |
| 20260510043519 | 11 | 178 | 0.0 | 3.2 | 0.00 | 1.17 | 0.00 | 93 | 1010.0 |
| 20260510043020 | 11 | 176 | 0.0 | 3.2 | 0.00 | 1.17 | 0.00 | 93 | 1010.0 |
| 20260510042519 | 11 | 200 | 0.0 | 3.2 | 0.00 | 1.17 | 0.00 | 93 | 1010.1 |
| 20260510042017 | 11 | 199 | 0.0 | 0.0 | 0.00 | 1.17 | 0.00 | 93 | 1010.1 |
| 20260510041515 | 11 | 182 | 0.0 | 0.0 | 0.00 | 1.17 | 0.00 | 93 | 1010.1 |
| 20260510041015 | 11 | 182 | 0.0 | 0.0 | 0.00 | 1.17 | 0.00 | 93 | 1010.1 |
| 20260510040513 | 11 | 182 | 0.0 | 0.0 | 0.00 | 1.17 | 0.00 | 94 | 1010.2 |
| 20260510040015 | 11 | 182 | 0.0 | 0.0 | 0.00 | 1.17 | 1.17 | 94 | 1010.2 |
| 20260510035513 | 11 | 182 | 0.0 | 0.0 | 0.00 | 1.17 | 1.17 | 94 | 1010.1 |
| 20260510035013 | 11 | 182 | 0.0 | 0.0 | 0.00 | 1.17 | 1.17 | 94 | 1010.1 |
| 20260510034511 | 11 | 182 | 0.0 | 0.0 | 0.00 | 1.17 | 1.17 | 94 | 1010.1 |
| 20260510034011 | 11 | 182 | 0.0 | 0.0 | 0.00 | 1.17 | 1.17 | 94 | 1010.3 |
| 20260510033511 | 11 | 182 | 0.0 | 0.0 | 0.00 | 1.17 | 1.17 | 94 | 1010.3 |
| 20260510033012 | 11 | 182 | 0.0 | 0.0 | 0.00 | 1.17 | 1.17 | 94 | 1010.4 |
| 20260510032510 | 11 | 182 | 0.0 | 0.0 | 0.00 | 1.17 | 1.17 | 94 | 1010.3 |
| 20260510032010 | 11 | 182 | 0.0 | 0.0 | 0.00 | 1.17 | 1.17 | 94 | 1010.2 |
| 20260510031516 | 11 | 182 | 0.0 | 0.0 | 0.00 | 1.17 | 1.17 | 94 | 1010.3 |
| 20260510031010 | 11 | 182 | 0.0 | 0.0 | 0.00 | 1.17 | 1.17 | 94 | 1010.4 |
| 20260510030514 | 11 | 182 | 0.0 | 0.0 | 0.00 | 1.17 | 1.17 | 94 | 1010.5 |
| 20260510030012 | 11 | 182 | 0.0 | 0.0 | 0.00 | 1.17 | 1.17 | 94 | 1010.6 |
| 20260510025510 | 11 | 182 | 0.0 | 0.0 | 0.05 | 1.17 | 1.17 | 94 | 1010.6 |
| 20260510025009 | 11 | 182 | 0.0 | 0.0 | 0.08 | 1.17 | 1.17 | 93 | 1010.7 |
| 20260510024512 | 11 | 182 | 0.0 | 0.0 | 0.10 | 1.17 | 1.17 | 93 | 1010.7 |
| 20260510024013 | 11 | 182 | 0.0 | 0.0 | 0.10 | 1.17 | 1.17 | 93 | 1010.7 |
| 20260510023508 | 11 | 182 | 0.0 | 0.0 | 0.10 | 1.17 | 1.17 | 93 | 1010.7 |
| 20260510023008 | 11 | 182 | 0.0 | 0.0 | 0.13 | 1.17 | 1.17 | 93 | 1010.7 |
| 20260510022508 | 11 | 182 | 0.0 | 0.0 | 0.15 | 1.17 | 1.17 | 93 | 1010.8 |
| 20260510022108 | 11 | 182 | 0.0 | 0.0 | 0.15 | 1.17 | 1.17 | 93 | 1010.8 |
| 20260510021516 | 11 | 182 | 0.0 | 0.0 | 0.15 | 1.17 | 1.17 | 93 | 1010.8 |
| 20260510021010 | 11 | 182 | 0.0 | 0.0 | 0.15 | 1.17 | 1.17 | 93 | 1010.8 |
| 20260510020507 | 11 | 182 | 0.0 | 0.0 | 0.15 | 1.17 | 1.17 | 93 | 1010.9 |
| 20260510020007 | 11 | 182 | 0.0 | 0.0 | 0.13 | 1.14 | 1.14 | 93 | 1011.0 |
| 20260510015507 | 11 | 182 | 0.0 | 0.0 | 0.10 | 1.12 | 1.12 | 93 | 1011.0 |
| 20260510015010 | 11 | 182 | 0.0 | 0.0 | 0.08 | 1.09 | 1.09 | 92 | 1011.1 |
| 20260510014508 | 11 | 182 | 0.0 | 0.0 | 0.05 | 1.07 | 1.07 | 92 | 1011.1 |
| 20260510014006 | 11 | 182 | 0.0 | 0.0 | 0.05 | 1.07 | 1.07 | 92 | 1011.2 |
| 20260510013506 | 11 | 182 | 0.0 | 0.0 | 0.05 | 1.07 | 1.07 | 92 | 1011.2 |
| 20260510013006 | 11 | 182 | 0.0 | 0.0 | 0.03 | 1.04 | 1.04 | 92 | 1011.3 |
| 20260510012505 | 11 | 182 | 0.0 | 0.0 | 0.00 | 1.02 | 1.02 | 92 | 1011.4 |
| 20260510012005 | 11 | 182 | 0.0 | 0.0 | 0.00 | 1.02 | 1.02 | 91 | 1011.5 |
| 20260510011506 | 11 | 182 | 0.0 | 0.0 | 0.00 | 1.02 | 1.02 | 91 | 1011.4 |
| 20260510011007 | 11 | 182 | 0.0 | 0.0 | 0.00 | 1.02 | 1.02 | 91 | 1011.4 |
| 20260510010505 | 11 | 181 | 0.0 | 0.0 | 0.00 | 1.02 | 1.02 | 91 | 1011.4 |
| 20260510010006 | 11 | 182 | 0.0 | 0.0 | 0.00 | 1.02 | 1.02 | 91 | 1011.3 |
| 20260510005504 | 11 | 182 | 0.0 | 0.0 | 0.00 | 1.02 | 1.02 | 91 | 1011.2 |
| 20260510005004 | 11 | 181 | 0.0 | 0.0 | 0.00 | 1.02 | 1.02 | 90 | 1011.3 |
| 20260510004504 | 11 | 179 | 0.0 | 0.0 | 0.00 | 1.02 | 1.02 | 90 | 1011.3 |
| 20260510004007 | 11 | 179 | 0.0 | 0.0 | 0.00 | 1.02 | 1.02 | 90 | 1011.3 |
| 20260510003504 | 11 | 179 | 0.0 | 0.0 | 0.00 | 1.02 | 1.02 | 90 | 1011.4 |
| 20260510003004 | 11 | 179 | 0.0 | 0.0 | 0.00 | 1.02 | 1.02 | 90 | 1011.4 |
| 20260510002503 | 11 | 199 | 0.0 | 0.0 | 0.00 | 1.02 | 1.02 | 89 | 1011.4 |
| 20260510002103 | 11 | 199 | 0.0 | 0.0 | 0.03 | 1.02 | 1.02 | 90 | 1011.3 |
| 20260510001503 | 12 | 199 | 0.0 | 0.0 | 0.03 | 1.02 | 1.02 | 89 | 1011.4 |
| 20260510001003 | 12 | 199 | 0.0 | 0.0 | 0.03 | 1.02 | 1.02 | 89 | 1011.4 |
| 20260510000502 | 12 | 199 | 0.0 | 8.0 | 0.03 | 1.02 | 1.02 | 89 | 1011.3 |
| 20260510000006 | 12 | 214 | 0.0 | 8.0 | 0.03 | 1.02 | 1.02 | 89 | 1011.3 |
| 20260509235502 | 12 | 199 | 0.0 | 3.2 | 0.03 | 1.02 | 1.02 | 89 | 1011.3 |
| 20260509235004 | 12 | 188 | 0.0 | 3.2 | 0.03 | 1.02 | 1.02 | 89 | 1011.3 |
| 20260509234502 | 12 | 192 | 0.0 | 6.4 | 0.05 | 1.02 | 1.02 | 90 | 1011.3 |
| 20260509234002 | 12 | 203 | 0.0 | 6.4 | 0.05 | 1.02 | 1.02 | 90 | 1011.3 |
| 20260509233501 | 12 | 188 | 0.0 | 4.8 | 0.05 | 1.02 | 1.02 | 91 | 1011.4 |
| 20260509233002 | 12 | 207 | 0.0 | 6.4 | 0.05 | 1.02 | 1.02 | 91 | 1011.4 |
| 20260509232502 | 12 | 228 | 1.6 | 6.4 | 0.08 | 1.02 | 1.02 | 91 | 1011.4 |
| 20260509232002 | 12 | 199 | 0.0 | 3.2 | 0.05 | 0.99 | 0.99 | 92 | 1011.4 |
| 20260509231501 | 12 | 202 | 0.0 | 3.2 | 0.05 | 0.99 | 0.99 | 92 | 1011.4 |
| 20260509231001 | 12 | 204 | 0.0 | 3.2 | 0.05 | 0.99 | 0.99 | 92 | 1011.5 |
| 20260509230502 | 12 | 202 | 0.0 | 3.2 | 0.05 | 0.99 | 0.99 | 92 | 1011.5 |
| 20260509230001 | 13 | 201 | 0.0 | 3.2 | 0.05 | 0.99 | 0.99 | 92 | 1011.5 |
| 20260509225601 | 13 | 207 | 0.0 | 0.0 | 0.08 | 0.99 | 0.99 | 92 | 1011.4 |
| 20260509225100 | 13 | 207 | 0.0 | 0.0 | 0.10 | 0.99 | 0.99 | 92 | 1011.4 |
| 20260509224605 | 13 | 195 | 0.0 | 3.2 | 0.18 | 0.97 | 0.97 | 92 | 1011.4 |
| 20260509224100 | 13 | 197 | 0.0 | 3.2 | 0.28 | 0.97 | 0.97 | 92 | 1011.3 |
| 20260509223600 | 13 | 197 | 0.0 | 3.2 | 0.36 | 0.97 | 0.97 | 92 | 1011.3 |
| 20260509223107 | 13 | 187 | 0.0 | 1.6 | 0.41 | 0.97 | 0.97 | 92 | 1011.2 |
| 20260509222603 | 13 | 189 | 0.0 | 3.2 | 0.43 | 0.94 | 0.94 | 92 | 1011.2 |
| 20260509222100 | 13 | 195 | 0.0 | 3.2 | 0.51 | 0.94 | 0.94 | 92 | 1011.2 |
| 20260509221607 | 13 | 203 | 0.0 | 3.2 | 0.56 | 0.94 | 0.94 | 92 | 1011.2 |
| 20260509221059 | 13 | 211 | 0.0 | 3.2 | 0.64 | 0.94 | 0.94 | 92 | 1011.2 |
| 20260509220602 | 13 | 200 | 0.0 | 1.6 | 0.69 | 0.94 | 0.94 | 92 | 1011.2 |
| 20260509220100 | 13 | 189 | 0.0 | 3.2 | 0.71 | 0.94 | 0.94 | 92 | 1011.2 |
| 20260509215559 | 13 | 193 | 0.0 | 4.8 | 0.69 | 0.91 | 0.91 | 92 | 1011.2 |
| 20260509215059 | 13 | 202 | 0.0 | 4.8 | 0.69 | 0.89 | 0.89 | 92 | 1011.1 |
| 20260509214607 | 13 | 202 | 0.0 | 4.8 | 0.58 | 0.79 | 0.79 | 91 | 1011.0 |
| 20260509214057 | 13 | 195 | 0.0 | 3.2 | 0.48 | 0.69 | 0.69 | 91 | 1010.9 |
| 20260509213559 | 13 | 178 | 0.0 | 3.2 | 0.41 | 0.61 | 0.61 | 91 | 1010.9 |
| 20260509213058 | 13 | 218 | 0.0 | 3.2 | 0.36 | 0.56 | 0.56 | 90 | 1010.8 |
| 20260509212657 | 13 | 223 | 0.0 | 3.2 | 0.30 | 0.51 | 0.51 | 90 | 1010.8 |
| 20260509212059 | 13 | 202 | 0.0 | 3.2 | 0.25 | 0.43 | 0.43 | 90 | 1010.8 |
| 20260509211600 | 13 | 207 | 0.0 | 4.8 | 0.20 | 0.36 | 0.36 | 89 | 1010.7 |
| 20260509211101 | 13 | 188 | 0.0 | 6.4 | 0.15 | 0.28 | 0.28 | 89 | 1010.7 |
| 20260509210557 | 13 | 189 | 0.0 | 6.4 | 0.15 | 0.25 | 0.25 | 89 | 1010.8 |
| 20260509210114 | 13 | 190 | 1.6 | 9.7 | 0.15 | 0.23 | 0.23 | 88 | 1010.7 |
| 20260509205555 | 13 | 192 | 0.0 | 9.7 | 0.15 | 0.23 | 0.23 | 89 | 1010.7 |
| 20260509205055 | 13 | 166 | 0.0 | 6.4 | 0.13 | 0.20 | 0.20 | 89 | 1010.8 |
| 20260509204559 | 13 | 189 | 1.6 | 9.7 | 0.13 | 0.20 | 0.20 | 88 | 1010.9 |
| 20260509204055 | 13 | 197 | 1.6 | 9.7 | 0.13 | 0.20 | 0.20 | 88 | 1010.6 |
| 20260509203555 | 13 | 214 | 1.6 | 8.0 | 0.13 | 0.20 | 0.20 | 88 | 1010.4 |
| 20260509203055 | 14 | 203 | 1.6 | 6.4 | 0.13 | 0.20 | 0.20 | 87 | 1010.3 |
| 20260509202555 | 14 | 199 | 1.6 | 8.0 | 0.10 | 0.18 | 0.18 | 86 | 1010.3 |
| 20260509202055 | 14 | 233 | 1.6 | 9.7 | 0.10 | 0.18 | 0.18 | 85 | 1010.3 |
| 20260509201600 | 15 | 206 | 3.2 | 17.7 | 0.08 | 0.15 | 0.15 | 84 | 1010.2 |
| 20260509201053 | 15 | 204 | 6.4 | 17.7 | 0.05 | 0.13 | 0.13 | 82 | 1010.3 |
| 20260509200553 | 15 | 222 | 6.4 | 17.7 | 0.00 | 0.08 | 0.08 | 80 | 1010.6 |
| 20260509195552 | 16 | 202 | 1.6 | 12.9 | 0.00 | 0.08 | 0.08 | 76 | 1010.2 |
| 20260509195051 | 16 | 190 | 3.2 | 12.9 | 0.00 | 0.08 | 0.08 | 75 | 1010.4 |
| 20260509194552 | 16 | 197 | 3.2 | 12.9 | 0.00 | 0.08 | 0.08 | 75 | 1010.3 |
| 20260509194051 | 16 | 183 | 3.2 | 9.7 | 0.00 | 0.08 | 0.08 | 74 | 1010.3 |
| 20260509193551 | 16 | 194 | 1.6 | 9.7 | 0.00 | 0.08 | 0.08 | 73 | 1010.2 |